Find Starlink 5106

NORAD ID: 54823 Int'l Des: 2022-177 Owner: SPXS Country: US Constellation: starlink operational
LEOCIRCULAR

Live Position

Loading 3D Globe...

About Starlink 5106

Description loading...

Upcoming Passes

Passes for default location (London). Set your location on the main map for personalized predictions.

Altitude History

Loading altitude history...

Two-Line Element Set

1 54823U 22177D 26121.24916672 .00000354 00000-0 22389-4 0 9990
2 54823 43.0005 199.0602 0000974 281.4305 78.6437 15.27577926184960
Epoch: May 1, 2026 • Age: 6 hours

Current Status

Altitude 490.3 km
Velocity 7.62 km/s
Sub-Earth Point -29.61°S, 120.05°E
Launch Date Dec 28, 2022
Age 3.3 years
Type internet

Technical Details

Classification Payload
Mass 305.00 kg
Dry Mass 290.00 kg
Total Mass 305.00 kg
Length 0.20 m
Diameter 2.80 m
Span 9.00 m
Shape Box + pan
Manufacturer SPXS
Bus Type Starlink
Phase Status In Orbit
Owner/State SPXS/US

Most Searched